Вернуться в каталог

OPS 9327

IDSCS 14

LostВоенныеMEO
NORAD 2654·PAYLOAD·🇺🇸 United States

Запущен Jan 18, 1967 с Cape Canaveral Space Force Station

Loading…

Ближайшие Пролёты (ближайшие 24 часа)

TLE

УстаревшееSource: Space-Track

Эпоха: Jul 28, 2026, 03:58 UTC

1 02654U 67003G   26209.16552884 -.00000110  00000-0  00000-0 0  9994
2 02654   8.2357  46.6917 0057212  51.6861 137.5002  1.07511668139917

Отслеживайте OPS 9327 в реальном времени с AllMySat

Download on the App Store